This is the latest recevied weather packets stored in our database for station/object KI4NG. If no packets are shown the sender has not sent any weather packets the latest 10 day(s).
| Time | Temp. | Humidity | Pressure | Rain* | Wind** | Luminosity | Snow |
|---|---|---|---|---|---|---|---|
| 1777680740 | 13.33° C | 67% | 1014.5 hPa | 0 mm | - | 10 W/m² | - |
| 1777680437 | 13.33° C | 67% | 1014.6 hPa | 0 mm | - | 19 W/m² | - |
| 1777680135 | 13.33° C | 67% | 1014.3 hPa | 0 mm | - | 19 W/m² | - |
| 1777679830 | 13.89° C | 68% | 1014.4 hPa | 0 mm | - | 22 W/m² | - |
| 1777679526 | 13.89° C | 67% | 1014.4 hPa | 0 mm | - | 27 W/m² | - |
| 1777679222 | 13.89° C | 66% | 1014.3 hPa | 0 mm | - | 34 W/m² | - |
| 1777678919 | 13.89° C | 67% | 1014 hPa | 0 mm | - | 32 W/m² | - |
| 1777678617 | 13.89° C | 65% | 1014.1 hPa | 0 mm | - | 35 W/m² | - |
| 1777678314 | 14.44° C | 67% | 1013.9 hPa | 0 mm | - | 37 W/m² | - |
| 1777678010 | 14.44° C | 64% | 1014.1 hPa | 0 mm | - | 52 W/m² | - |
| 1777677708 | 14.44° C | 64% | 1013.8 hPa | 0 mm | - | 69 W/m² | - |
| 1777677405 | 14.44° C | 67% | 1013.8 hPa | 0 mm | - | 82 W/m² | - |
| 1777677103 | 15° C | 64% | 1013.8 hPa | 0 mm | - | 84 W/m² | - |
| 1777676801 | 15° C | 65% | 1013.8 hPa | 0 mm | - | 94 W/m² | - |
| 1777676499 | 15° C | 63% | 1013.9 hPa | 0 mm | - | 100 W/m² | - |
| 1777676197 | 15° C | 65% | 1013.9 hPa | 0 mm | - | 109 W/m² | - |
| 1777675893 | 15.56° C | 63% | 1013.8 hPa | 0 mm | - | 101 W/m² | - |
| 1777675590 | 15.56° C | 62% | 1013.7 hPa | 0 mm | - | 144 W/m² | - |
| 1777675287 | 15.56° C | 62% | 1013.5 hPa | 0 mm | - | 186 W/m² | - |
| 1777674983 | 15.56° C | 62% | 1014 hPa | 0 mm | - | 161 W/m² | - |
| 1777674681 | 15.56° C | 64% | 1013.8 hPa | 0 mm | - | 177 W/m² | - |
| 1777674386 | 16.11° C | 63% | 1013.5 hPa | 0 mm | - | 143 W/m² | - |
| 1777674074 | 16.11° C | 61% | 1013.6 hPa | 0 mm | - | 144 W/m² | - |
| 1777673770 | 16.11° C | 63% | 1013.7 hPa | 0 mm | - | 285 W/m² | - |
| 1777673468 | 16.11° C | 63% | 1013.7 hPa | 0 mm | - | 127 W/m² | - |
* Rain latest hour (hover to see other rain measurements)
** Current wind speed in m/s (hover to see current wind gust speed)